GFSNW_prec_cloud_252.txt.gz
Cloud_Cover
100 100 100 5 2 0 1 5 4 27 74 18 80 72 10 5 3 7 52 42 12 49 23 12 6 22 87 90 62 21 100 100 72 100 100 100 100 100 100 100 100 100 100 3
100 100 100 100 14 0 0 40 10 2 5 42 75 22 5 5 0 5 5 23 14 5 100 63 15 5 10 5 41 83 77 100 68 28 100 100 100 100 100 100 100 100 100 68
89 100 100 100 97 2 1 14 5 5 5 5 7 5 5 5 2 0 3 3 4 86 17 5 15 5 46 6 5 100 100 10 99 100 100 100 100 100 100 100 100 100 100 100
100 95 100 100 100 31 5 22 20 35 16 6 87 58 5 5 4 4 5 5 34 93 96 19 5 5 14 100 6 41 100 76 52 29 100 100 100 100 100 100 100 100 100 100
100 100 100 100 99 100 42 6 45 92 11 5 5 5 5 5 5 58 36 37 6 91 23 18 100 5 10 5 58 0 44 11 5 5 100 100 100 100 95 57 39 100 100 100
34 99 100 64 29 100 59 36 54 70 21 16 45 18 5 5 6 9 7 100 89 58 24 5 5 5 5 6 5 5 30 18 76 4 25 97 100 100 100 100 13 100 100 100
91 61 100 99 50 100 100 92 97 100 53 57 31 5 5 5 5 97 5 5 86 7 5 59 2 5 4 1 5 15 17 44 100 37 6 70 100 100 100 100 100 78 94 98
100 100 100 100 80 97 100 100 100 100 92 20 21 5 5 6 5 8 16 5 5 74 97 70 26 4 2 32 5 17 6 87 97 84 47 2 60 100 100 100 100 100 100 100
93 100 100 100 100 39 98 100 100 100 99 26 3 5 5 88 68 38 5 4 5 5 63 75 86 69 11 23 53 100 100 100 84 97 100 76 19 100 100 100 100 100 100 100
100 94 100 100 100 32 64 100 100 100 100 18 53 62 21 100 92 100 26 4 5 38 92 96 96 60 50 100 94 48 100 100 100 100 98 6 100 97 100 100 100 100 100 100
34 99 100 100 95 48 96 87 99 100 100 81 51 54 84 80 100 100 50 73 71 80 98 97 89 97 38 17 100 98 60 100 92 100 100 70 100 94 38 100 100 100 100 100
100 100 100 100 100 88 64 99 94 82 100 96 9 5 5 5 53 100 100 32 30 99 100 71 93 50 8 8 100 100 88 100 100 99 94 98 100 57 70 100 100 100 100 100
100 100 100 100 100 78 65 100 100 100 100 96 48 5 5 5 4 19 100 59 44 13 5 56 68 94 72 85 90 84 100 100 100 100 100 100 100 100 100 100 100 100 100 100
100 100 100 100 100 100 100 98 10 91 100 95 53 3 5 5 0 0 4 5 5 5 5 87 77 85 27 47 6 70 100 46 5 4 60 4 84 66 100 100 100 100 100 100
100 100 100 98 100 100 100 90 93 100 100 69 68 5 5 5 1 0 0 5 58 98 100 95 91 33 92 7 99 100 95 62 6 2 4 2 99 82 100 97 100 100 100 100
100 100 100 100 100 99 100 27 88 100 100 100 88 31 5 5 3 6 96 75 87 100 100 90 68 57 100 95 71 100 45 5 14 5 1 3 16 23 32 100 100 100 95 100
100 100 100 98 100 100 79 14 60 85 98 99 68 88 5 59 46 51 33 76 98 100 100 89 14 81 100 100 70 90 10 23 72 73 28 5 5 16 66 98 100 100 100 100
100 100 100 100 100 100 100 36 81 100 100 100 98 100 17 5 13 79 98 97 99 100 100 60 90 60 80 86 82 63 43 54 78 99 47 92 48 28 67 86 98 65 72 100
100 100 100 100 100 100 100 99 94 100 100 74 98 70 61 13 52 97 96 100 100 98 99 82 87 96 71 98 60 65 65 100 100 93 100 100 100 100 75 23 92 100 100 100
100 100 100 100 100 100 100 98 100 100 100 100 100 34 39 35 5 7 83 98 100 100 26 43 99 20 87 100 8 48 82 100 94 96 100 100 100 100 100 96 100 100 40 92
100 100 100 100 100 100 100 100 100 100 99 100 100 100 93 59 75 92 97 86 67 100 7 31 77 51 100 73 36 74 100 100 100 85 100 100 100 100 100 99 100 98 100 100
100 100 100 100 100 100 100 100 100 100 100 99 100 100 100 100 85 99 100 99 93 94 58 92 72 99 100 100 100 100 74 87 99 100 100 100 100 100 100 100 100 100 100 100
100 100 100 100 100 100 100 100 100 100 100 100 100 100 100 100 99 93 84 100 96 45 98 65 100 89 33 62 48 5 5 66 100 100 100 100 100 100 100 100 100 100 100 100
100 100 100 92 89 100 100 100 100 100 100 100 100 100 100 100 100 100 98 88 100 100 100 10 6 44 68 99 71 77 16 8 97 100 100 100 100 100 100 100 100 100 100 100
100 96 77 53 100 100 100 100 100 100 100 100 100 100 100 100 100 100 96 78 91 59 87 38 18 5 5 64 78 46 92 71 70 100 100 100 100 100 100 100 100 100 100 100
100 87 90 50 100 100 100 100 100 100 100 100 100 100 99 88 98 76 99 100 100 13 49 15 10 5 5 5 58 90 84 95 63 27 86 100 100 100 100 100 79 100 100 100
82 96 96 100 100 100 100 100 100 100 100 100 100 100 100 8 72 92 100 100 100 38 22 10 5 26 31 52 100 99 100 100 82 77 97 72 100 100 100 99 16 97 100 100

GFSNW_prec_cloud_255.txt.gz
Cloud_Cover
8 100 100 100 6 4 0 5 5 5 5 8 79 29 5 5 2 2 4 5 5 6 20 22 5 5 5 5 5 99 28 27 67 5 38 99 88 100 100 100 100 100 100 26
7 46 68 72 91 4 0 19 5 4 5 14 41 12 5 5 0 5 4 2 2 4 36 18 5 5 6 22 5 5 35 44 66 2 35 66 100 100 100 100 98 100 98 22
73 5 93 100 97 14 4 6 5 3 5 5 5 5 5 4 5 0 0 5 5 23 94 47 29 12 34 100 17 1 19 24 99 99 40 37 86 100 100 99 100 89 83 45
43 37 52 50 68 26 5 12 5 10 5 5 26 11 5 5 5 1 5 5 12 90 100 95 52 58 7 5 5 4 5 75 16 4 5 13 5 100 100 33 100 92 84 98
73 35 63 100 100 5 5 6 10 98 41 5 5 5 5 5 3 5 47 32 99 67 99 91 94 97 23 93 83 5 37 66 51 15 2 5 1 100 98 21 25 5 95 100
97 6 5 100 30 46 5 16 20 24 5 5 11 10 3 5 5 10 5 63 99 96 11 54 30 5 2 3 5 5 100 100 100 61 5 0 0 100 93 30 31 21 100 100
78 5 12 97 100 8 92 86 41 94 19 26 22 5 5 5 5 91 19 5 75 17 81 5 5 3 0 1 5 34 98 99 100 75 15 16 7 77 98 79 88 75 100 100
78 30 5 88 100 97 91 91 100 100 82 8 6 5 5 5 5 5 6 5 5 5 73 66 13 5 0 1 5 95 100 100 100 100 79 1 86 82 98 96 100 92 100 100
76 75 71 98 100 100 97 100 100 100 100 26 3 22 21 71 47 40 5 4 0 0 11 68 92 13 1 4 5 72 100 100 100 98 96 48 100 100 79 90 99 100 100 100
100 100 91 83 100 100 98 95 100 100 100 41 32 34 16 12 74 96 43 5 33 75 46 100 70 29 13 97 29 5 96 100 100 94 95 40 100 17 99 74 99 100 100 100
100 100 100 100 100 100 88 45 34 98 100 66 43 31 94 45 100 94 54 64 48 83 90 91 30 100 14 3 6 5 48 100 100 100 100 61 100 100 62 85 100 100 100 100
100 100 100 100 100 100 96 100 100 100 100 44 5 5 5 6 57 100 100 15 5 45 92 100 97 71 5 5 74 47 73 76 94 79 100 100 100 100 49 82 100 100 100 100
100 100 100 100 100 100 76 85 59 100 100 70 72 54 4 5 5 6 97 57 39 29 5 6 51 100 28 96 82 6 98 44 39 29 99 59 100 53 100 94 62 100 100 100
100 100 100 100 100 100 100 99 100 100 100 97 97 6 5 5 22 5 5 2 5 5 62 100 93 88 4 82 7 59 94 26 5 19 73 43 5 11 100 100 100 100 100 100
100 100 100 100 100 100 84 78 52 100 99 78 100 62 5 5 29 5 5 5 41 96 99 100 93 66 67 6 35 45 4 5 10 6 5 59 17 22 7 100 100 100 100 100
100 100 100 100 99 100 100 85 27 52 100 100 100 100 14 5 77 23 5 45 99 100 90 100 99 76 85 96 88 79 5 5 5 5 5 67 63 51 5 8 100 93 100 100
100 100 100 100 100 100 94 58 6 92 100 100 100 100 25 7 15 23 20 42 99 98 100 91 89 93 100 100 94 77 12 5 5 5 6 64 17 71 81 95 81 50 26 92
100 100 100 100 100 100 100 100 70 99 98 100 100 100 88 9 46 90 84 96 100 100 99 56 80 85 91 78 96 6 5 96 39 88 87 99 92 100 100 98 99 82 17 28
100 100 100 100 100 100 84 64 100 99 100 100 100 100 100 40 25 100 100 100 100 75 95 67 70 96 69 72 7 5 5 20 62 30 86 97 100 100 100 100 100 93 92 91
100 100 100 100 100 93 53 100 100 100 100 100 100 100 89 46 43 6 68 72 97 100 67 91 100 70 6 100 47 5 4 7 92 25 12 74 100 100 100 100 100 100 100 100
98 100 100 100 100 82 100 100 100 100 100 100 100 100 100 100 99 89 97 79 66 100 16 88 88 43 8 25 54 20 49 68 82 5 50 91 97 100 100 100 100 100 100 100
100 100 100 100 100 100 100 97 100 100 100 81 100 100 100 100 100 100 94 99 94 81 54 96 87 38 99 100 100 89 45 7 34 96 100 100 100 100 100 100 100 100 100 100
100 100 100 92 98 100 100 100 100 100 100 100 100 100 100 100 100 100 99 100 67 60 100 100 100 30 84 100 87 43 54 15 11 69 100 100 100 100 100 100 100 100 100 100
100 98 93 97 97 85 100 100 100 100 100 100 100 100 100 100 100 100 100 81 100 100 100 34 61 8 25 5 5 5 5 5 5 5 87 100 100 100 100 100 100 100 99 100
99 97 81 59 98 100 100 100 100 100 100 100 100 100 100 100 100 99 80 92 96 77 100 11 5 21 53 18 5 5 5 30 98 72 13 14 50 88 85 79 96 82 11 86
100 88 86 54 99 100 100 100 100 100 100 100 100 100 100 100 96 82 100 91 98 100 42 5 5 5 5 6 7 5 75 100 98 68 92 80 13 5 5 9 12 5 5 61
100 61 80 100 100 100 100 100 100 100 100 100 100 100 56 57 33 97 100 100 100 100 38 5 5 5 5 5 16 61 63 45 34 29 24 37 29 97 46 82 20 5 5 45

GFSNW_prec_cloud_258.txt.gz
Cloud_Cover
100 63 24 20 5 5 5 5 27 5 0 30 68 5 2 2 5 2 7 7 75 86 100 100 100 100 97 86 4 5 98 43 46 99 6 3 96 100 89 100 86 90 100 44
32 95 25 6 40 5 5 5 5 5 5 86 14 1 5 5 5 4 43 5 5 6 98 97 100 100 98 26 24 81 95 100 82 99 69 28 94 16 43 80 81 91 100 51
68 28 5 5 11 5 5 11 33 23 10 5 5 7 5 20 4 4 0 7 26 98 100 100 97 100 100 98 100 52 45 100 100 100 92 93 5 3 46 66 100 99 84 61
100 100 58 94 10 5 5 9 9 9 77 79 72 50 5 5 57 5 20 96 100 100 100 100 100 100 100 89 100 95 73 100 99 41 5 36 5 3 22 54 10 100 92 93
96 79 100 48 31 100 5 86 36 5 5 5 23 62 6 5 5 32 36 99 100 100 100 100 100 100 81 82 7 100 95 61 99 82 24 100 55 5 60 51 33 100 97 99
98 100 56 100 100 36 58 50 14 30 28 55 54 47 5 18 81 32 83 100 100 100 100 98 86 28 7 5 94 93 100 98 100 31 100 100 19 0 21 78 99 100 90 100
95 100 100 100 100 99 21 20 40 97 88 24 33 25 15 64 93 91 83 100 99 85 93 26 5 5 2 4 32 42 24 100 100 100 100 92 4 37 64 23 99 94 100 96
96 99 100 99 100 100 50 30 34 99 99 77 5 30 56 6 62 90 98 5 18 88 11 34 13 4 0 0 2 51 88 100 100 100 99 65 4 73 96 100 69 99 90 88
100 100 100 100 100 100 100 100 100 100 100 65 34 8 72 82 93 90 93 80 44 20 96 100 99 13 3 58 26 14 92 93 100 100 100 100 100 100 100 26 89 100 100 100
100 100 99 100 100 100 100 100 100 98 100 64 86 86 89 91 95 98 100 92 97 70 100 100 100 91 33 92 73 72 81 100 100 99 100 100 100 100 97 97 99 100 100 100
100 100 100 100 100 100 100 100 83 92 100 98 58 28 94 99 99 100 98 84 67 94 100 100 100 100 100 74 5 5 64 99 99 98 100 100 85 100 100 98 100 100 100 100
100 100 100 100 100 100 100 100 86 100 100 95 53 10 31 61 94 100 91 92 74 98 100 97 100 100 100 93 92 53 90 100 84 86 88 76 99 41 100 77 100 100 100 100
100 100 100 100 100 100 100 100 93 99 100 90 93 91 5 5 6 47 96 98 84 99 96 100 100 100 81 97 88 99 100 96 99 100 61 73 87 11 81 100 100 99 100 100
100 100 100 100 100 100 100 100 98 94 78 89 96 30 5 5 5 5 5 6 85 88 100 100 100 100 73 65 73 92 84 51 10 93 56 52 89 100 99 91 78 24 82 100
100 100 100 100 100 100 100 100 99 96 88 100 99 49 31 24 6 5 5 86 100 100 100 100 100 100 99 97 99 9 10 0 50 99 100 99 100 93 85 5 40 83 74 80
100 100 100 100 100 100 100 98 44 74 99 100 100 100 98 18 5 10 81 91 100 100 100 100 100 100 100 99 85 59 1 5 5 5 40 61 63 83 86 57 30 46 67 81
100 100 100 100 100 100 100 95 27 99 91 100 84 100 100 24 59 97 100 100 100 100 100 97 100 100 100 100 66 98 5 3 5 53 59 45 100 99 65 70 78 66 66 83
100 100 100 100 100 100 100 99 68 89 96 99 98 100 98 5 93 100 100 100 100 100 99 98 100 100 100 81 56 58 4 0 0 6 49 34 57 98 98 74 75 65 56 63
100 100 100 100 100 100 100 100 100 100 100 100 100 100 54 5 66 85 99 100 100 99 100 100 99 100 77 0 26 5 2 5 5 11 24 92 60 70 80 85 70 92 98 100
100 100 100 100 100 100 100 100 100 100 100 99 100 100 67 8 86 98 95 91 93 100 100 94 100 52 4 2 0 0 5 5 45 31 80 92 69 72 95 100 100 100 100 100
100 100 100 100 100 100 100 100 94 90 100 100 100 100 78 99 89 100 18 96 100 100 100 98 100 19 5 4 1 3 3 14 86 8 5 11 60 100 100 100 100 100 100 100
100 100 100 100 100 100 100 96 93 100 100 100 100 97 100 97 100 99 94 82 99 100 96 100 100 66 6 5 98 50 31 38 36 5 13 67 100 100 100 100 100 100 100 100
100 100 100 100 100 100 100 99 100 100 100 100 100 100 88 100 99 100 100 100 100 95 100 85 100 93 31 24 96 71 47 14 6 5 5 47 82 85 80 82 94 100 97 97
100 100 100 99 96 98 100 100 100 100 99 100 100 100 100 100 100 97 100 83 89 98 89 100 100 29 44 100 41 22 27 30 15 28 8 92 96 72 29 5 13 21 51 15
100 100 100 100 100 100 100 100 100 100 100 100 100 100 100 100 100 100 78 100 100 90 100 100 95 60 85 32 20 6 52 30 5 58 98 33 5 11 5 24 79 27 25 5
100 100 100 100 100 100 100 100 100 100 100 100 100 100 100 100 100 100 100 100 100 100 100 100 73 25 24 10 6 5 16 5 12 26 56 39 7 37 96 97 92 45 25 23
100 99 100 100 100 100 100 100 100 100 100 100 100 100 100 97 100 96 100 100 100 100 100 100 100 99 100 11 7 5 33 22 5 5 6 18 40 100 100 100 100 98 58 30

GFSNW_prec_cloud_264.txt.gz
Cloud_Cover
100 100 100 100 100 75 83 67 45 6 46 78 49 52 84 62 96 5 5 0 0 0 0 0 5 5 16 47 81 17 77 41 52 86 2 77 99 76 100 100 84 85 88 26
100 100 100 100 100 85 87 60 61 66 9 85 23 19 94 36 100 18 5 0 0 0 4 4 5 5 15 18 87 89 51 54 34 5 7 100 100 100 100 100 100 71 100 10
100 100 100 100 100 100 98 85 87 34 12 45 48 6 85 100 62 38 5 5 0 3 10 52 34 45 57 86 80 100 60 30 96 66 19 1 39 100 100 100 78 5 14 18
100 100 100 100 100 100 38 100 100 99 100 74 14 30 29 57 98 64 5 5 5 7 6 5 5 12 22 16 62 89 97 54 5 0 68 32 8 5 56 100 97 21 1 1
100 100 100 100 100 100 100 91 95 41 14 88 100 80 13 21 70 64 10 6 28 46 27 37 10 18 21 30 5 6 34 7 92 4 94 100 100 89 100 13 21 70 5 0
100 100 100 100 100 100 100 100 91 100 100 100 85 100 82 5 6 68 34 5 5 50 44 32 12 5 5 5 4 49 46 4 97 16 80 64 18 75 100 96 96 78 5 45
100 100 100 100 100 100 100 100 100 100 99 86 99 97 100 67 84 54 49 34 66 47 5 0 0 0 0 0 4 35 5 5 82 78 26 98 100 50 88 100 100 100 100 100
100 100 100 100 100 100 100 100 100 100 100 100 100 74 43 100 100 83 8 26 91 5 4 16 5 4 2 0 0 8 77 82 91 100 99 21 96 76 74 69 100 100 100 97
100 100 100 100 100 100 100 100 100 100 100 100 100 100 76 100 100 98 100 94 37 17 19 92 39 34 28 2 2 4 76 55 80 26 98 55 72 100 98 92 98 100 97 96
100 100 100 100 100 100 100 100 100 100 100 100 100 100 100 100 100 79 79 73 37 64 53 98 98 76 82 91 5 12 1 4 16 8 100 76 99 84 36 69 100 98 100 88
100 100 100 100 100 100 100 100 100 100 100 100 100 100 100 100 100 100 43 86 60 53 96 100 92 98 61 31 57 46 98 99 12 90 90 74 84 100 6 24 46 72 100 90
100 100 100 100 100 100 100 100 100 100 100 100 99 100 97 100 100 100 100 89 100 92 93 77 46 97 82 70 89 29 84 52 10 89 36 27 0 47 100 22 4 32 88 6
100 100 100 100 100 100 100 100 100 100 100 100 100 100 100 100 100 100 100 100 100 100 87 100 79 99 59 50 37 48 64 99 100 32 4 69 8 10 30 4 100 99 58 3
100 100 100 100 100 100 100 100 100 100 100 100 100 100 100 100 100 100 100 100 100 100 93 63 86 92 79 14 36 32 23 49 8 12 13 3 53 83 100 92 1 5 5 75
100 100 100 100 100 100 100 96 100 100 95 97 100 99 100 100 100 100 100 100 100 99 95 82 57 87 96 35 31 3 8 11 14 2 5 79 37 96 100 8 12 10 75 83
100 100 100 100 100 100 100 100 100 100 100 98 91 100 100 100 100 100 100 100 92 100 100 100 92 45 97 100 47 1 6 97 100 99 39 89 56 1 83 68 5 5 27 100
44 74 88 92 100 100 100 100 100 100 98 100 80 100 100 100 100 99 100 100 85 91 100 100 99 68 100 89 30 6 2 21 4 46 91 74 68 82 38 5 5 5 22 80
5 28 73 63 97 66 84 58 54 71 99 60 98 100 100 100 100 100 88 49 86 86 100 100 98 16 66 99 7 6 4 24 2 0 2 5 39 5 4 5 6 61 60 72
10 32 31 49 88 92 72 10 68 96 66 97 99 100 100 100 100 100 89 86 99 46 89 95 76 100 100 13 5 5 21 94 6 5 82 100 86 58 4 59 76 11 5 5
42 59 73 81 95 38 18 72 100 100 100 100 100 100 100 100 98 71 87 99 87 100 59 41 100 100 98 5 5 5 5 5 37 100 100 100 8 5 5 100 29 8 5 5
67 72 91 92 77 99 98 100 88 90 100 100 100 100 100 100 68 86 100 100 100 100 95 85 98 100 98 58 32 8 70 37 61 21 99 13 5 5 19 48 42 6 46 48
88 85 86 99 98 90 100 100 100 100 100 89 98 100 100 100 98 94 97 90 100 100 74 93 94 100 98 30 100 100 5 5 44 30 5 5 5 5 5 5 5 10 37 41
87 79 100 98 93 100 100 98 100 100 100 82 76 99 100 100 100 100 100 97 96 39 38 85 98 65 94 99 100 96 75 92 14 75 96 28 5 5 5 5 48 89 100 56
100 100 100 100 100 98 100 100 100 100 100 100 100 100 92 77 89 98 97 63 82 98 98 75 88 100 99 99 100 100 100 100 91 100 100 100 90 5 5 67 16 5 5 12
95 100 100 99 95 97 100 100 98 100 100 100 100 100 100 100 100 99 97 100 97 73 60 87 100 100 95 100 100 100 99 99 99 100 100 100 100 100 56 97 80 36 21 96
100 100 100 86 92 81 90 80 95 100 100 100 100 100 100 100 100 100 100 100 100 100 100 100 99 100 100 100 100 100 100 88 99 100 100 100 100 96 91 99 65 5 5 71
98 92 24 76 42 10 99 100 100 100 100 100 100 100 100 100 100 100 100 100 100 100 100 100 100 100 100 100 100 100 100 100 100 100 100 100 100 100 100 67 5 9 75 97

GFSNW_prec_cloud_270.txt.gz
Cloud_Cover
100 100 100 100 100 100 99 100 100 100 100 100 100 97 44 8 99 36 93 84 100 99 5 0 4 98 0 1 0 0 0 5 5 0 0 5 5 23 84 86 20 66 76 19
100 100 100 100 100 100 100 100 100 100 100 100 100 87 62 99 74 100 100 100 100 100 16 30 94 21 2 0 0 0 0 2 5 1 1 3 1 4 3 66 69 12 78 17
100 100 100 100 100 100 100 100 100 100 100 100 100 60 62 100 100 100 100 100 100 100 99 100 100 34 5 3 0 0 0 1 1 5 0 3 5 2 5 36 93 5 18 1
100 100 100 100 100 100 100 100 100 100 100 100 100 100 94 100 100 100 100 100 100 100 100 100 100 50 6 5 4 5 0 0 4 2 0 0 0 4 1 5 32 88 17 85
100 100 100 100 100 100 100 100 100 100 100 100 100 100 100 96 100 100 100 66 100 100 44 100 99 45 77 64 8 5 5 5 2 4 0 0 0 0 5 5 91 100 100 79
100 100 100 100 100 100 100 100 100 100 100 100 100 93 100 100 100 100 100 76 100 100 98 31 13 47 82 98 38 7 5 5 5 4 0 0 2 4 4 5 60 84 44 99
100 100 100 100 100 100 100 100 100 100 100 100 100 100 100 100 100 100 100 100 100 100 97 91 22 52 99 100 92 58 22 5 7 5 5 54 0 1 6 14 5 5 54 36
100 100 100 100 100 100 100 100 100 100 100 100 100 100 100 80 100 100 100 100 100 100 100 91 84 91 100 100 100 98 98 5 5 5 41 5 0 3 1 27 2 5 5 4
100 100 100 100 100 100 100 100 100 100 100 100 100 93 100 100 100 100 100 100 100 100 100 100 100 100 100 100 100 100 87 52 5 64 63 73 0 0 0 5 32 0 0 0
100 100 100 100 100 100 100 100 100 100 100 100 100 100 100 100 100 100 100 100 100 88 98 100 100 100 100 100 100 100 100 84 4 29 81 34 0 2 5 70 12 2 5 5
100 100 100 100 100 100 100 100 100 100 100 100 100 100 100 100 100 100 100 100 100 100 100 100 92 91 100 89 100 100 98 52 19 34 45 73 3 11 47 48 6 5 5 4
100 100 100 100 100 100 100 100 100 100 100 100 100 100 100 100 100 100 100 98 95 100 100 99 100 97 92 32 100 100 100 5 5 6 14 5 69 100 48 94 5 33 4 0
100 100 100 100 100 100 100 100 100 100 93 92 100 100 100 100 100 100 100 100 100 100 95 98 92 100 5 5 93 100 97 8 5 22 22 5 5 2 5 55 100 4 6 5
100 100 100 100 100 100 100 100 91 100 100 100 96 100 100 100 100 100 100 100 99 98 99 99 100 100 12 11 100 100 69 1 5 100 5 6 7 0 5 12 30 13 20 18
100 100 100 100 100 100 100 92 100 100 100 100 100 85 100 100 64 8 9 6 8 54 88 100 84 100 63 80 100 100 57 4 5 8 5 5 9 5 5 5 5 5 18 6
100 100 100 100 100 100 100 100 100 97 100 99 100 98 5 5 5 5 1 5 25 65 95 93 96 44 99 63 100 100 5 5 4 11 5 5 5 5 5 5 5 43 73 5
100 100 100 100 100 100 100 93 63 53 96 96 99 65 5 2 3 4 9 30 100 99 100 91 53 95 86 100 100 87 4 0 5 5 5 9 5 56 39 7 29 53 12 4
100 100 100 100 100 100 99 72 19 100 100 93 93 17 5 2 10 5 5 93 92 100 92 95 92 46 66 83 8 6 10 2 0 2 5 29 62 72 34 14 70 32 61 98
100 100 100 100 96 13 13 73 84 56 15 47 61 50 5 4 28 42 47 54 92 100 99 90 86 100 83 3 0 3 5 5 5 5 72 59 15 43 62 54 19 14 100 54
100 84 76 21 5 6 22 71 79 99 53 100 97 16 17 5 8 95 79 66 71 94 97 6 95 99 84 5 5 5 5 5 92 11 5 26 91 51 8 87 100 100 100 100
38 49 70 92 18 60 32 72 100 85 78 32 80 6 3 4 65 57 77 100 100 98 49 59 100 86 16 5 12 12 27 44 13 86 6 6 40 47 79 91 100 100 98 79
5 42 96 98 21 32 44 64 78 54 6 5 5 5 5 2 4 52 78 82 85 24 26 98 65 8 58 20 6 25 5 5 5 39 19 83 92 66 99 100 84 99 100 100
43 10 5 17 48 83 84 95 58 55 10 53 93 92 90 75 92 71 5 25 40 5 38 24 71 97 100 100 98 82 100 90 94 98 96 100 100 100 100 100 100 100 100 100
100 100 95 91 84 100 100 98 99 62 76 96 81 92 98 100 100 92 96 36 43 95 10 22 61 88 100 100 100 100 100 100 100 100 100 100 100 100 100 63 87 100 100 100
99 91 96 100 100 97 95 98 100 98 83 9 61 89 97 81 100 100 100 100 90 75 73 98 100 100 100 100 98 100 100 100 100 100 100 100 100 100 100 100 100 100 100 100
58 85 97 38 23 67 100 100 100 96 100 100 97 89 87 99 100 100 100 100 91 96 100 100 100 99 100 100 100 100 100 100 100 100 100 100 100 100 100 100 100 98 93 74
36 47 6 5 5 6 84 100 100 89 72 26 83 100 54 89 100 100 100 100 100 100 100 100 99 100 100 100 100 100 100 100 100 100 100 100 100 100 100 100 100 100 99 100

GFSNW_prec_cloud_276.txt.gz
Cloud_Cover
90 100 100 94 100 100 100 99 78 86 71 100 97 100 100 100 100 100 100 100 100 100 100 100 100 100 99 98 99 100 79 6 5 6 5 4 0 0 5 5 1 4 5 9
100 100 100 100 100 100 100 100 100 100 100 100 100 100 100 100 100 100 100 100 100 100 100 100 100 100 88 100 89 96 51 18 5 5 6 76 38 11 5 5 4 5 39 1
100 100 100 100 100 100 100 100 100 100 100 100 100 100 100 100 100 100 100 100 100 100 100 100 100 100 100 100 100 97 99 34 5 5 5 8 5 16 5 5 51 4 3 1
100 100 100 100 100 100 100 100 100 100 100 100 100 100 100 100 100 100 100 100 100 100 100 100 100 100 100 100 100 44 56 78 43 91 5 75 11 5 5 9 4 48 0 3
100 100 100 100 100 100 100 100 100 100 100 100 100 100 100 100 100 100 100 100 100 100 100 100 100 100 100 100 77 12 79 22 58 100 29 22 93 52 7 6 1 3 0 2
100 100 100 100 100 100 100 100 100 100 100 100 100 100 100 100 100 100 100 100 100 100 100 100 100 100 100 100 83 100 98 25 24 100 100 10 100 81 5 5 5 1 25 0
100 100 100 100 100 100 100 100 100 100 100 100 98 100 100 100 100 100 100 100 100 100 100 100 100 100 100 100 94 68 69 20 68 100 100 100 100 39 5 5 5 3 3 4
100 100 100 100 100 100 100 100 100 100 100 100 100 100 100 100 100 100 100 100 100 100 100 100 100 100 100 100 98 100 100 100 100 100 100 100 100 11 2 3 7 0 1 0
100 100 100 100 100 100 100 100 100 100 100 100 100 100 100 100 100 100 100 100 100 100 100 100 100 100 100 71 100 100 100 97 94 82 77 56 100 95 0 2 1 5 4 0
100 100 100 100 100 100 100 100 100 100 100 100 100 100 100 100 100 100 100 100 100 100 100 100 88 89 14 45 43 48 33 46 18 65 67 19 100 93 3 3 1 0 5 1
100 100 100 100 100 100 100 100 100 100 100 100 100 100 100 100 100 100 100 100 98 100 97 92 90 40 5 12 6 5 36 34 86 92 96 47 99 100 37 2 4 5 5 1
100 100 100 100 100 100 100 100 100 100 100 100 100 100 100 100 100 100 100 100 100 100 66 88 25 47 63 5 5 5 5 81 9 5 7 26 54 20 4 5 5 5 9 48
100 100 100 100 100 100 100 100 100 100 100 100 100 100 100 100 100 100 100 100 84 64 52 45 49 5 5 8 31 1 8 99 9 36 2 1 1 2 0 1 5 0 4 9
100 100 100 100 100 100 100 100 100 100 100 100 100 100 100 100 100 100 99 100 79 35 23 50 44 23 5 11 11 5 27 50 5 30 5 99 79 0 5 35 8 38 94 97
100 100 100 100 100 100 100 100 100 100 100 100 100 100 100 100 100 100 100 45 6 57 37 70 63 20 59 28 37 5 47 9 2 8 21 96 100 21 2 93 46 7 59 17
100 100 100 100 100 100 100 100 100 100 100 100 100 100 100 100 100 100 58 51 40 59 71 86 100 70 49 72 87 3 5 3 1 4 9 96 94 100 23 5 5 5 5 5
100 100 100 100 100 100 100 100 100 100 100 100 100 100 100 100 100 98 38 11 20 10 26 95 11 5 57 82 80 5 5 5 4 2 3 5 1 5 1 0 4 4 5 5
100 100 100 100 100 100 100 100 100 100 100 100 100 100 100 100 100 50 19 80 62 97 79 94 55 16 88 94 5 5 5 5 4 2 1 0 1 5 5 2 3 5 5 5
100 100 100 100 100 100 100 100 100 100 100 100 100 100 100 100 100 100 100 99 92 78 94 100 91 96 79 5 9 32 32 97 100 34 4 0 0 0 5 5 5 36 5 35
100 100 100 100 100 100 100 100 100 100 100 100 100 100 100 100 100 100 99 55 98 71 5 60 100 55 6 25 97 100 100 100 100 100 67 12 5 5 18 7 5 5 22 82
100 100 100 100 100 100 100 100 100 100 100 100 100 100 100 100 95 71 40 51 70 84 18 23 69 68 74 100 100 100 99 100 100 100 100 100 60 9 5 5 24 67 99 91
100 100 100 100 100 100 100 100 100 100 100 100 100 100 100 69 57 43 69 43 74 80 66 98 76 96 100 100 99 95 97 91 100 100 100 100 100 100 100 98 98 98 100 100
100 100 100 100 100 100 100 100 100 100 100 100 100 100 100 45 32 54 8 22 41 10 94 43 81 100 98 94 87 88 93 98 100 100 100 100 100 100 99 94 100 100 100 100
100 100 100 100 100 100 98 88 80 96 100 100 76 72 100 60 26 24 91 31 54 95 96 22 62 72 44 18 14 75 76 99 100 100 100 100 100 100 100 100 100 100 100 100
100 100 100 100 100 98 92 81 72 55 58 22 17 28 61 85 100 78 67 94 72 83 50 86 97 100 100 100 100 100 100 100 100 99 100 100 100 100 100 100 100 100 100 100
100 100 100 85 72 77 65 85 100 48 12 16 23 33 78 31 78 93 44 53 96 100 100 100 100 100 100 100 100 100 96 100 100 98 100 100 100 100 100 100 100 92 93 98
64 64 22 5 38 84 71 52 13 5 5 6 11 12 13 30 94 75 78 74 71 93 100 100 100 100 100 100 100 100 100 100 100 100 100 100 100 100 100 100 100 100 100 39

GFSNW_prec_cloud_279.txt.gz
Cloud_Cover
100 100 100 100 100 100 100 100 100 100 100 100 100 100 100 100 100 98 64 99 100 100 24 37 100 100 100 100 100 100 100 98 97 16 74 23 7 5 5 13 6 10 5 5
100 100 100 100 100 98 100 98 100 100 100 100 100 100 100 83 100 100 100 100 59 99 50 26 100 100 100 100 100 98 100 100 100 98 54 58 68 5 5 5 28 100 12 4
100 100 100 100 100 78 100 100 100 100 100 100 100 96 87 100 100 100 99 86 100 100 89 32 100 100 100 100 100 100 100 100 100 38 29 100 84 23 5 67 97 100 16 5
100 100 100 100 99 99 100 100 100 100 100 100 100 99 96 100 100 100 93 95 60 98 64 100 100 100 100 100 100 100 100 100 100 82 93 72 98 100 91 100 100 100 10 5
100 100 100 95 100 99 100 100 100 100 99 100 100 100 100 100 100 100 100 99 100 97 100 100 100 100 100 100 100 100 100 100 100 93 54 37 100 100 99 100 100 5 5 5
100 100 100 90 100 100 100 100 100 100 100 100 100 100 100 100 100 100 100 100 99 100 100 100 100 100 100 100 100 100 53 78 54 75 54 74 100 92 16 5 68 5 10 4
100 100 100 98 100 100 100 98 100 99 100 100 100 100 100 100 100 99 100 92 90 100 100 100 100 100 100 100 100 100 12 6 8 5 4 5 26 0 5 83 100 5 72 5
100 100 96 100 100 100 100 100 100 100 100 100 100 100 100 100 100 100 85 91 100 100 100 100 100 100 100 100 100 70 5 5 4 2 5 2 74 0 0 3 100 33 8 5
100 100 100 100 100 100 100 100 100 100 100 100 100 100 100 100 95 100 100 100 100 100 98 100 100 100 100 100 100 5 5 5 4 37 5 0 0 0 0 0 4 3 5 2
100 100 100 100 100 100 100 100 100 100 100 100 100 100 100 100 100 100 100 100 100 100 100 100 100 100 100 100 52 37 68 5 13 62 25 0 3 2 1 2 0 0 0 4
100 100 100 100 100 100 100 100 100 100 100 100 100 100 100 100 100 100 100 100 100 100 100 100 100 100 100 44 41 5 8 12 65 79 57 21 5 5 5 4 14 8 4 1
100 100 100 100 100 100 100 100 100 100 100 100 100 100 100 100 100 100 100 100 100 100 100 100 100 100 34 36 16 5 2 0 0 2 1 5 5 3 5 20 59 98 6 5
100 100 100 100 100 100 100 100 100 100 100 100 100 99 100 100 100 100 100 100 100 100 100 100 100 45 34 10 5 5 0 4 0 0 2 5 5 5 5 1 16 38 5 5
100 100 100 100 100 100 100 100 100 100 100 99 100 100 100 100 100 100 100 100 100 100 100 100 96 13 5 22 68 2 1 2 0 2 0 5 4 2 0 0 0 2 5 2
100 100 100 100 100 100 100 100 100 100 100 100 100 100 100 100 100 100 100 100 100 100 100 96 12 5 5 63 6 5 2 0 1 0 0 4 5 0 0 0 0 0 0 0
100 100 100 100 100 100 100 100 100 100 100 100 100 100 100 100 100 100 100 100 100 100 100 82 80 6 5 6 29 3 5 4 5 5 5 1 0 0 0 0 0 0 0 0
100 100 100 100 100 100 100 100 100 100 100 100 100 100 100 100 100 100 100 100 100 100 95 82 5 9 7 70 30 52 5 5 5 5 98 88 6 17 2 0 0 5 3 0
100 100 100 100 100 100 100 100 100 100 100 100 100 100 100 100 100 100 100 100 82 84 85 92 97 36 94 81 66 11 13 5 39 90 99 83 68 6 5 5 5 0 5 0
100 100 100 100 100 100 100 100 100 100 100 100 100 100 100 100 100 100 100 100 100 58 100 100 94 99 80 66 78 91 79 100 100 67 90 100 100 100 88 17 5 5 4 5
100 100 100 100 100 100 100 100 100 100 100 100 100 100 100 100 100 100 100 100 100 100 100 98 100 100 6 72 69 96 62 78 100 100 97 93 99 100 100 78 9 9 6 54
100 100 100 100 100 100 100 100 100 100 100 100 100 100 100 100 100 100 100 100 100 100 100 100 99 82 82 94 100 88 32 73 42 94 100 100 100 92 94 99 100 100 100 92
100 100 100 100 100 100 100 100 100 100 100 100 100 100 100 100 100 100 100 100 100 100 89 96 95 62 58 84 92 66 79 79 68 42 54 80 99 94 50 95 100 100 100 100
100 100 100 100 100 100 100 100 100 100 100 100 100 100 100 100 100 100 100 100 100 61 99 48 62 91 83 73 36 50 61 92 98 93 97 95 94 99 60 35 100 100 100 100
100 100 100 100 100 100 100 100 100 100 100 100 100 100 100 100 100 100 96 52 30 92 94 25 93 100 100 100 100 100 100 100 95 91 60 66 92 68 100 96 37 74 100 100
98 93 100 88 100 100 100 100 100 100 100 100 100 100 100 100 100 100 70 96 87 94 94 100 100 100 100 100 100 100 95 95 96 100 100 100 100 98 86 96 100 100 93 100
100 100 100 100 100 100 100 100 100 100 100 100 100 100 100 89 93 95 89 56 94 100 100 100 100 100 100 100 100 100 100 99 92 79 100 100 100 100 100 100 100 35 99 100
100 100 100 100 100 100 100 100 100 100 100 100 70 16 9 26 80 80 64 83 88 100 100 100 100 96 84 100 100 100 100 100 100 100 89 100 100 100 21 5 5 37 10 73

GFSNW_prec_cloud_282.txt.gz
Cloud_Cover
100 100 100 100 100 100 100 100 100 100 100 100 100 100 100 100 100 100 100 100 100 100 74 77 99 100 19 98 50 99 98 58 52 81 100 100 100 100 45 57 8 5 74 5
100 100 100 100 100 100 100 100 100 100 100 100 100 100 100 100 100 100 100 100 100 80 46 39 83 85 66 70 100 65 80 73 100 95 97 100 48 31 6 5 5 5 97 17
100 100 100 100 100 100 100 100 100 100 100 100 100 91 98 100 100 100 100 100 100 99 90 90 89 96 89 100 59 51 97 100 89 49 98 84 94 6 4 4 1 40 100 100
100 100 100 100 100 100 100 100 100 100 100 100 100 100 100 89 99 96 95 100 100 100 64 100 100 86 91 100 20 82 100 100 91 100 100 100 70 5 0 2 0 5 5 7
100 100 100 100 100 100 100 100 100 100 100 100 98 100 100 91 47 43 59 86 100 100 100 100 84 35 100 28 13 100 100 100 100 100 100 100 10 0 0 0 0 0 0 5
100 100 100 100 100 100 100 100 100 100 100 100 99 100 100 60 97 83 84 80 99 99 100 80 82 74 99 27 100 100 100 100 100 100 88 63 5 4 0 0 0 0 0 0
100 100 100 100 100 100 100 100 100 100 99 100 100 100 55 100 97 100 76 41 54 100 100 92 91 81 90 100 100 100 100 100 92 100 58 18 0 0 0 0 0 0 0 0
100 100 100 100 100 100 100 100 100 100 100 100 100 100 100 100 100 100 54 89 100 100 99 100 100 74 100 100 100 100 100 100 100 68 6 3 0 0 0 0 0 5 0 0
100 100 100 100 100 100 100 100 100 100 100 100 100 100 100 100 99 100 93 94 99 100 100 100 99 99 100 100 100 84 100 100 29 74 5 0 0 0 0 0 1 1 2 1
100 100 100 100 100 100 100 100 100 98 100 100 100 100 100 100 100 100 100 83 95 100 100 100 100 100 100 100 100 100 88 95 58 96 72 2 0 0 0 0 1 0 4 5
100 100 100 100 100 100 100 100 100 100 99 99 100 100 100 100 100 95 100 100 99 91 100 100 100 100 100 100 100 100 98 7 34 74 91 13 0 0 0 0 3 0 0 4
100 100 100 100 100 100 100 100 100 100 99 100 100 100 100 74 100 97 100 100 100 100 100 100 100 100 100 100 100 100 20 5 5 5 0 0 0 0 0 0 0 0 5 5
100 100 100 100 100 100 100 100 100 100 100 100 100 100 87 82 55 100 100 100 100 98 97 100 100 100 100 100 100 99 5 5 14 5 5 1 0 1 0 0 0 3 1 0
100 100 100 100 100 100 100 100 100 100 100 100 100 100 100 86 84 100 100 100 99 100 100 100 100 100 100 100 100 100 5 13 11 5 1 2 5 3 5 4 0 0 0 2
100 100 100 100 100 100 100 100 100 100 100 100 100 100 99 99 100 100 100 100 79 100 100 100 100 100 100 100 100 5 21 17 5 5 5 31 5 5 5 5 5 0 3 2
100 100 100 100 100 100 100 100 100 100 100 100 100 100 100 100 100 98 95 70 100 100 100 100 100 100 90 100 49 24 30 5 5 5 5 5 5 70 5 41 5 5 5 5
100 100 100 100 100 100 100 100 100 100 100 100 83 90 100 100 100 100 100 100 100 100 100 100 100 100 95 70 6 28 10 5 5 33 95 100 39 50 23 44 67 33 5 5
100 100 100 100 100 100 100 100 100 100 100 89 100 100 100 100 100 100 100 100 100 100 100 100 100 100 100 96 72 74 81 53 26 64 100 100 97 100 99 58 46 58 73 74
100 100 100 100 100 100 100 100 100 100 100 82 100 100 100 100 100 100 100 100 100 100 100 100 100 100 100 100 100 100 100 90 80 82 95 86 86 82 70 10 7 12 77 99
100 100 100 92 100 100 100 100 100 98 91 100 100 100 100 100 100 100 100 100 100 100 100 100 100 100 100 100 100 100 90 60 88 85 78 70 19 7 5 13 28 61 88 37
100 100 100 100 100 100 100 100 100 100 100 100 100 100 100 100 100 100 100 100 100 100 100 100 100 100 100 100 100 85 71 61 66 68 82 87 92 98 96 37 5 5 7 29
100 100 100 100 100 100 99 100 100 100 100 100 100 100 100 100 100 100 100 100 100 100 100 100 100 100 100 100 98 87 50 5 5 9 5 5 5 4 2 0 1 1 5 5
100 100 100 100 100 100 94 100 100 100 100 100 100 100 100 100 100 100 100 100 100 100 100 100 100 100 100 100 91 23 10 5 73 89 70 16 5 60 82 7 5 5 3 5
98 84 100 99 84 100 100 100 100 100 100 100 100 100 100 100 100 100 100 100 100 100 100 100 100 97 94 87 88 100 96 98 68 5 13 54 59 46 88 100 100 100 82 44
100 98 98 100 100 100 100 100 100 100 100 100 100 100 100 100 100 100 100 100 100 100 100 100 100 86 91 97 83 19 31 88 99 100 100 100 100 91 30 31 78 91 29 16
100 100 100 100 100 100 100 100 100 87 98 100 94 96 100 94 98 98 100 100 100 100 100 99 94 88 94 94 82 51 24 78 91 100 91 34 50 25 5 5 5 5 5 5
100 100 100 100 100 100 100 79 99 100 99 100 100 100 100 100 100 100 100 100 100 98 100 94 77 13 5 5 5 5 5 5 5 5 6 5 37 36 5 1 0 4 5 5